[Date Prev][Date Next][Thread Prev][Thread Next] - [Date Index][Thread Index][Author Index]

2 LIne ISS Keps 7-27



ISS
1 25544U 98067A   01208.14527649  .00010611  00000-0  14663-3 0  2624
2 25544  51.6391 246.6813 0011295 305.4958 145.8200 15.57695311153326


----
Via the sarex mailing list at AMSAT.ORG courtesy of AMSAT-NA.
To unsubscribe, send "unsubscribe sarex" to Majordomo@amsat.org



AMSAT Top AMSAT Home